Location: Newark
(44.0167°N, 1.3500°E)
Time: 05:20:20
(UTC+00:00)

ITAMSAT 1 - Visible Passes

Search period start: 06 December 2019 00:00
Search period end: 16 December 2019 00:00
Orbit: 784 x 796 km, 98.9° (Epoch: 05 December)

Date Brightness Start Highest point End Pass type
(mag) Time Alt. Az. Time Alt. Az. Time Alt. Az.
06 Dec 9.2 04:52:26 10° NNE 04:57:14 36° E 05:01:59 10° SSE visible
06 Dec 8.4 06:32:03 10° N 06:36:35 31° WNW 06:41:04 10° SW visible
06 Dec 10.6 17:53:21 10° SW 17:56:37 17° W 17:59:54 10° NW visible
07 Dec 10.2 04:23:46 10° NE 04:27:33 20° E 04:31:18 10° SE visible
07 Dec 7.7 06:02:15 10° N 06:07:20 54° WNW 06:12:22 10° SSW visible
07 Dec 9.8 17:22:19 10° SSW 17:26:53 30° W 17:31:29 10° NW visible
08 Dec 10.9 03:57:00 10° E 03:57:44 10° E 03:58:27 10° E visible
08 Dec 7.7 05:32:43 10° NNE 05:37:57 84° ESE 05:43:08 10° SSW visible
08 Dec 8.6 16:52:10 10° S 16:57:18 55° W 17:02:27 10° NNW visible
09 Dec 8.7 05:03:27 10° NNE 05:08:27 45° E 05:13:23 10° S visible
09 Dec 10.8 18:05:30 10° WSW 18:07:54 13° W 18:10:18 10° WNW visible
10 Dec 9.8 04:34:34 10° NE 04:38:49 25° E 04:43:01 10° SSE visible
10 Dec 7.9 06:13:30 10° N 06:18:25 44° WNW 06:23:19 10° SW visible
10 Dec 10.2 17:33:55 10° SSW 17:38:08 24° W 17:42:22 10° NW visible
11 Dec 10.7 04:06:34 10° ENE 04:09:02 13° E 04:11:30 10° ESE visible
11 Dec 7.6 05:43:52 10° NNE 05:49:05 80° WNW 05:54:16 10° SSW visible
11 Dec 9.0 17:03:31 10° S 17:08:29 44° W 17:13:29 10° NNW visible
12 Dec 8.3 05:14:30 10° NNE 05:19:38 57° ESE 05:24:42 10° S visible
12 Dec 11.2 18:19:00 10° W 18:19:13 10° W 18:19:26 10° W visible
13 Dec 9.5 04:45:27 10° NE 04:50:02 31° E 04:54:35 10° SSE visible
13 Dec 8.2 06:24:47 10° N 06:29:30 36° WNW 06:34:11 10° SW visible
13 Dec 10.5 17:45:39 10° SW 17:49:23 20° W 17:53:08 10° NW visible
14 Dec 10.4 04:17:00 10° NE 04:20:19 17° E 04:23:36 10° SE visible
14 Dec 7.6 05:55:04 10° N 06:00:13 64° WNW 06:05:19 10° SSW visible
14 Dec 9.5 17:14:56 10° SSW 17:19:42 35° W 17:24:30 10° NNW visible
15 Dec 7.9 05:25:36 10° NNE 05:30:48 71° ESE 05:35:57 10° S visible
15 Dec 8.2 16:44:57 10° S 16:50:09 65° WSW 16:55:22 10° NNW visible
